Time,TemperatureF,DewpointF,PressureIn,WindDirection,WindDirectionDegrees,WindSpeedMPH,WindSpeedGustMPH,Humidity,HourlyPrecipIn,Conditions,Clouds,dailyrainin,SoftwareType,DateUTC
2013-05-08 00:02:00,50.7,43.1,29.79,SE,144,2.0,11.0,75,0.00,,,0.18,Wunderground v.1.15,2013-05-08 06:02:00,
2013-05-08 00:07:00,50.8,42.8,29.78,ESE,115,6.0,11.0,74,0.00,,,0.00,Wunderground v.1.15,2013-05-08 06:07:00,
2013-05-08 00:12:00,50.7,43.1,29.78,SSE,154,8.0,9.0,75,0.00,,,0.00,Wunderground v.1.15,2013-05-08 06:12:00,
2013-05-08 00:17:00,50.4,42.8,29.78,SSE,148,11.0,11.0,75,0.00,,,0.00,Wunderground v.1.15,2013-05-08 06:17:00,
2013-05-08 00:22:00,50.4,42.8,29.81,SE,144,1.0,11.0,75,0.00,,,0.00,Wunderground v.1.15,2013-05-08 06:22:00,
2013-05-08 00:27:00,50.4,42.8,29.81,SE,144,1.0,11.0,75,0.00,,,0.00,Wunderground v.1.15,2013-05-08 06:27:00,
2013-05-08 00:32:00,50.1,42.5,29.81,SE,144,0.0,3.0,75,0.00,,,0.00,Wunderground v.1.15,2013-05-08 06:32:00,
2013-05-08 00:37:00,49.5,42.6,29.81,SE,144,0.0,3.0,77,0.00,,,0.00,Wunderground v.1.15,2013-05-08 06:37:00,
2013-05-08 00:42:00,48.6,42.0,29.81,SE,144,0.0,0.0,78,0.00,,,0.00,Wunderground v.1.15,2013-05-08 06:42:00,
2013-05-08 00:47:00,48.0,42.1,29.81,SE,142,2.0,2.0,80,0.00,,,0.00,Wunderground v.1.15,2013-05-08 06:47:00,
2013-05-08 00:52:00,48.5,42.9,29.82,East,93,2.0,4.0,81,0.00,,,0.00,Wunderground v.1.15,2013-05-08 06:52:00,
2013-05-08 00:57:00,48.8,42.9,29.82,East,93,0.0,4.0,80,0.00,,,0.00,Wunderground v.1.15,2013-05-08 06:57:00,
2013-05-08 01:02:00,48.6,42.7,29.82,East,93,0.0,1.0,80,0.00,,,0.00,Wunderground v.1.15,2013-05-08 07:02:00,
2013-05-08 01:07:00,47.4,40.9,29.81,East,92,0.0,1.0,78,0.00,,,0.00,Wunderground v.1.15,2013-05-08 07:07:00,
2013-05-08 01:12:00,45.1,39.3,29.81,East,93,0.0,0.0,80,0.00,,,0.00,Wunderground v.1.15,2013-05-08 07:12:00,
2013-05-08 01:17:00,44.1,39.3,29.81,East,93,0.0,4.0,83,0.00,,,0.00,Wunderground v.1.15,2013-05-08 07:17:00,
2013-05-08 01:22:00,43.5,39.0,29.83,East,94,1.0,3.0,84,0.00,,,0.00,Wunderground v.1.15,2013-05-08 07:22:00,
2013-05-08 01:27:00,43.2,39.0,29.83,East,95,2.0,3.0,85,0.00,,,0.00,Wunderground v.1.15,2013-05-08 07:27:00,
2013-05-08 01:32:00,42.9,39.0,29.83,East,96,3.0,3.0,86,0.00,,,0.00,Wunderground v.1.15,2013-05-08 07:32:00,
2013-05-08 01:37:00,42.8,39.2,29.83,ESE,109,3.0,5.0,87,0.00,,,0.00,Wunderground v.1.15,2013-05-08 07:37:00,
2013-05-08 01:42:00,44.9,41.9,29.83,SE,140,4.0,7.0,89,0.00,,,0.00,Wunderground v.1.15,2013-05-08 07:42:00,
2013-05-08 01:47:00,45.8,42.4,29.83,SE,140,2.0,7.0,88,0.00,,,0.00,Wunderground v.1.15,2013-05-08 07:47:00,
2013-05-08 01:52:00,45.7,42.1,29.82,SE,140,3.0,4.0,87,0.00,,,0.00,Wunderground v.1.15,2013-05-08 07:52:00,
2013-05-08 01:57:00,46.2,42.5,29.82,SE,140,0.0,5.0,87,0.00,,,0.00,Wunderground v.1.15,2013-05-08 07:57:00,
2013-05-08 02:02:00,46.2,42.5,29.82,SE,140,0.0,2.0,87,0.00,,,0.00,Wunderground v.1.15,2013-05-08 08:02:00,
2013-05-08 02:07:00,46.2,42.5,29.82,SE,140,0.0,2.0,87,0.00,,,0.00,Wunderground v.1.15,2013-05-08 08:07:00,
2013-05-08 02:12:00,46.5,42.5,29.82,SE,140,0.0,0.0,86,0.00,,,0.00,Wunderground v.1.15,2013-05-08 08:12:00,
2013-05-08 02:17:00,46.4,42.4,29.82,SE,140,0.0,0.0,86,0.00,,,0.00,Wunderground v.1.15,2013-05-08 08:17:00,
2013-05-08 02:22:00,46.1,42.4,29.81,SE,140,0.0,0.0,87,0.00,,,0.00,Wunderground v.1.15,2013-05-08 08:22:00,
2013-05-08 02:27:00,45.8,42.2,29.81,SE,140,0.0,0.0,87,0.00,,,0.00,Wunderground v.1.15,2013-05-08 08:27:00,
2013-05-08 02:32:00,45.7,42.1,29.81,SE,140,0.0,0.0,87,0.00,,,0.00,Wunderground v.1.15,2013-05-08 08:32:00,
2013-05-08 02:37:00,45.5,42.2,29.81,SE,140,0.0,0.0,88,0.00,,,0.00,Wunderground v.1.15,2013-05-08 08:37:00,
2013-05-08 02:42:00,45.7,42.3,29.81,SE,140,0.0,0.0,88,0.00,,,0.00,Wunderground v.1.15,2013-05-08 08:42:00,
2013-05-08 02:47:00,45.5,42.2,29.81,SE,140,0.0,0.0,88,0.00,,,0.00,Wunderground v.1.15,2013-05-08 08:47:00,
2013-05-08 02:52:00,45.5,42.4,29.81,SE,140,0.0,3.0,89,0.00,,,0.00,Wunderground v.1.15,2013-05-08 08:52:00,
2013-05-08 02:57:00,45.7,42.6,29.81,SE,140,0.0,3.0,89,0.00,,,0.00,Wunderground v.1.15,2013-05-08 08:57:00,
2013-05-08 03:02:00,45.7,42.6,29.81,SE,140,0.0,1.0,89,0.00,,,0.00,Wunderground v.1.15,2013-05-08 09:02:00,
2013-05-08 03:07:00,46.0,42.9,29.81,SE,140,0.0,1.0,89,0.00,,,0.00,Wunderground v.1.15,2013-05-08 09:07:00,
2013-05-08 03:12:00,46.1,43.0,29.81,SE,140,0.0,0.0,89,0.00,,,0.00,Wunderground v.1.15,2013-05-08 09:12:00,
2013-05-08 03:17:00,45.8,42.7,29.81,SE,140,0.0,0.0,89,0.00,,,0.00,Wunderground v.1.15,2013-05-08 09:17:00,
2013-05-08 03:23:00,45.7,42.6,29.81,SE,140,0.0,0.0,89,0.00,,,0.00,Wunderground v.1.15,2013-05-08 09:23:00,
2013-05-08 03:28:00,45.5,42.4,29.81,SE,140,0.0,0.0,89,0.00,,,0.00,Wunderground v.1.15,2013-05-08 09:28:00,
2013-05-08 03:33:00,45.5,42.4,29.81,SE,140,0.0,0.0,89,0.00,,,0.00,Wunderground v.1.15,2013-05-08 09:33:00,
2013-05-08 03:38:00,45.8,43.0,29.82,SE,140,0.0,0.0,90,0.00,,,0.00,Wunderground v.1.15,2013-05-08 09:38:00,
2013-05-08 03:43:00,45.8,43.0,29.82,SE,140,0.0,0.0,90,0.00,,,0.00,Wunderground v.1.15,2013-05-08 09:43:00,
2013-05-08 03:48:00,45.8,43.0,29.82,SE,140,0.0,0.0,90,0.00,,,0.00,Wunderground v.1.15,2013-05-08 09:48:00,
2013-05-08 03:53:00,45.5,42.4,29.83,SE,140,0.0,0.0,89,0.00,,,0.00,Wunderground v.1.15,2013-05-08 09:53:00,
2013-05-08 03:58:00,45.4,42.6,29.83,SE,140,0.0,0.0,90,0.00,,,0.00,Wunderground v.1.15,2013-05-08 09:58:00,
2013-05-08 04:03:00,45.8,43.3,29.83,SE,140,0.0,0.0,91,0.00,,,0.00,Wunderground v.1.15,2013-05-08 10:03:00,
2013-05-08 04:08:00,46.0,43.2,29.83,SE,140,0.0,0.0,90,0.00,,,0.00,Wunderground v.1.15,2013-05-08 10:08:00,
2013-05-08 04:13:00,46.0,43.2,29.83,SE,140,0.0,0.0,90,0.00,,,0.00,Wunderground v.1.15,2013-05-08 10:13:00,
2013-05-08 04:18:00,46.1,43.3,29.83,SE,140,0.0,0.0,90,0.00,,,0.00,Wunderground v.1.15,2013-05-08 10:18:00,
2013-05-08 04:23:00,46.1,43.3,29.87,SE,140,0.0,0.0,90,0.00,,,0.00,Wunderground v.1.15,2013-05-08 10:23:00,
2013-05-08 04:28:00,46.4,43.9,29.87,SE,140,0.0,0.0,91,0.00,,,0.00,Wunderground v.1.15,2013-05-08 10:28:00,
2013-05-08 04:33:00,46.4,43.9,29.87,SE,140,0.0,2.0,91,0.00,,,0.00,Wunderground v.1.15,2013-05-08 10:33:00,
2013-05-08 04:38:00,46.4,43.9,29.87,SE,140,0.0,2.0,91,0.00,,,0.00,Wunderground v.1.15,2013-05-08 10:38:00,
2013-05-08 04:43:00,46.7,44.2,29.87,SE,140,0.0,0.0,91,0.00,,,0.00,Wunderground v.1.15,2013-05-08 10:43:00,
2013-05-08 04:48:00,46.8,44.3,29.87,SE,140,0.0,0.0,91,0.00,,,0.01,Wunderground v.1.15,2013-05-08 10:48:00,
2013-05-08 04:53:00,47.1,44.6,29.86,SE,140,0.0,0.0,91,0.00,,,0.01,Wunderground v.1.15,2013-05-08 10:53:00,
2013-05-08 04:58:00,47.1,44.6,29.86,SE,140,0.0,0.0,91,0.00,,,0.01,Wunderground v.1.15,2013-05-08 10:58:00,
2013-05-08 05:03:00,47.0,44.5,29.86,SE,140,0.0,0.0,91,0.00,,,0.01,Wunderground v.1.15,2013-05-08 11:03:00,
2013-05-08 05:08:00,47.1,44.6,29.87,SE,140,0.0,0.0,91,0.00,,,0.01,Wunderground v.1.15,2013-05-08 11:08:00,
2013-05-08 05:13:00,47.0,44.5,29.87,SE,140,0.0,0.0,91,0.00,,,0.01,Wunderground v.1.15,2013-05-08 11:13:00,
2013-05-08 05:18:00,46.8,44.3,29.87,SE,140,0.0,0.0,91,0.00,,,0.01,Wunderground v.1.15,2013-05-08 11:18:00,
2013-05-08 05:23:00,46.7,44.2,29.88,SE,140,0.0,0.0,91,0.00,,,0.01,Wunderground v.1.15,2013-05-08 11:23:00,
2013-05-08 05:28:00,46.8,44.3,29.88,SE,140,0.0,0.0,91,0.00,,,0.01,Wunderground v.1.15,2013-05-08 11:28:00,
2013-05-08 05:33:00,47.1,44.9,29.88,SE,140,1.0,3.0,92,0.00,,,0.01,Wunderground v.1.15,2013-05-08 11:33:00,
2013-05-08 05:38:00,47.3,44.8,29.87,SE,140,0.0,3.0,91,0.00,,,0.01,Wunderground v.1.15,2013-05-08 11:38:00,
2013-05-08 05:43:00,47.4,44.9,29.87,SE,140,0.0,1.0,91,0.00,,,0.01,Wunderground v.1.15,2013-05-08 11:43:00,
2013-05-08 05:48:00,47.6,45.1,29.87,SE,140,0.0,1.0,91,0.00,,,0.02,Wunderground v.1.15,2013-05-08 11:48:00,
2013-05-08 05:53:00,47.6,45.1,29.87,West,269,4.0,5.0,91,0.10,,,0.03,Wunderground v.1.15,2013-05-08 11:53:00,
2013-05-08 05:58:00,47.4,44.9,29.87,NW,310,10.0,12.0,91,0.09,,,0.03,Wunderground v.1.15,2013-05-08 11:58:00,
2013-05-08 06:03:00,47.4,44.9,29.87,NW,310,1.0,11.0,91,0.09,,,0.04,Wunderground v.1.15,2013-05-08 12:03:00,
2013-05-08 06:08:00,47.1,44.6,29.87,NW,323,0.0,14.0,91,0.06,,,0.04,Wunderground v.1.15,2013-05-08 12:08:00,
2013-05-08 06:13:00,46.8,44.3,29.87,WNW,300,2.0,9.0,91,0.04,,,0.04,Wunderground v.1.15,2013-05-08 12:13:00,
2013-05-08 06:18:00,46.0,43.2,29.87,NW,304,2.0,10.0,90,0.00,,,0.04,Wunderground v.1.15,2013-05-08 12:18:00,
2013-05-08 06:23:00,45.4,42.9,29.89,NW,322,2.0,7.0,91,0.00,,,0.04,Wunderground v.1.15,2013-05-08 12:23:00,
2013-05-08 06:28:00,44.8,42.0,29.89,WNW,301,0.0,10.0,90,0.00,,,0.04,Wunderground v.1.15,2013-05-08 12:28:00,
2013-05-08 06:33:00,44.5,42.0,29.89,NW,304,3.0,7.0,91,0.00,,,0.04,Wunderground v.1.15,2013-05-08 12:33:00,
2013-05-08 06:38:00,44.2,41.7,29.90,NW,307,1.0,9.0,91,0.00,,,0.04,Wunderground v.1.15,2013-05-08 12:38:00,
2013-05-08 06:43:00,44.1,41.6,29.90,NW,310,5.0,13.0,91,0.00,,,0.04,Wunderground v.1.15,2013-05-08 12:43:00,
2013-05-08 06:48:00,43.9,41.4,29.90,NW,306,2.0,13.0,91,0.00,,,0.04,Wunderground v.1.15,2013-05-08 12:48:00,
2013-05-08 06:53:00,43.9,41.4,29.91,WNW,296,10.0,10.0,91,0.00,,,0.04,Wunderground v.1.15,2013-05-08 12:53:00,
2013-05-08 06:58:00,43.8,41.3,29.91,NW,323,2.0,12.0,91,0.00,,,0.05,Wunderground v.1.15,2013-05-08 12:58:00,
2013-05-08 07:03:00,43.9,41.4,29.91,NW,323,5.0,11.0,91,0.00,,,0.05,Wunderground v.1.15,2013-05-08 13:03:00,
2013-05-08 07:08:00,43.9,41.4,29.92,NNW,330,6.0,11.0,91,0.00,,,0.05,Wunderground v.1.15,2013-05-08 13:08:00,
2013-05-08 07:13:00,43.9,41.4,29.92,NNW,334,6.0,12.0,91,0.00,,,0.05,Wunderground v.1.15,2013-05-08 13:13:00,
2013-05-08 07:18:00,43.9,41.7,29.92,NNW,331,6.0,12.0,92,0.00,,,0.05,Wunderground v.1.15,2013-05-08 13:18:00,
2013-05-08 07:23:00,43.9,41.4,29.92,NW,317,5.0,10.0,91,0.00,,,0.05,Wunderground v.1.15,2013-05-08 13:23:00,
2013-05-08 07:28:00,43.9,41.7,29.92,NW,311,0.0,12.0,92,0.00,,,0.05,Wunderground v.1.15,2013-05-08 13:28:00,
2013-05-08 07:33:00,43.9,41.7,29.92,NW,310,4.0,9.0,92,0.00,,,0.05,Wunderground v.1.15,2013-05-08 13:33:00,
2013-05-08 07:38:00,43.9,41.7,29.92,NW,317,4.0,9.0,92,0.00,,,0.05,Wunderground v.1.15,2013-05-08 13:38:00,
2013-05-08 07:43:00,43.9,41.7,29.92,NW,310,0.0,5.0,92,0.00,,,0.05,Wunderground v.1.15,2013-05-08 13:43:00,
2013-05-08 07:48:00,43.9,41.7,29.92,NW,321,8.0,10.0,92,0.00,,,0.05,Wunderground v.1.15,2013-05-08 13:48:00,
2013-05-08 07:53:00,43.8,41.6,29.93,NW,319,4.0,11.0,92,0.00,,,0.05,Wunderground v.1.15,2013-05-08 13:53:00,
2013-05-08 07:58:00,43.8,41.6,29.93,NW,321,3.0,11.0,92,0.00,,,0.05,Wunderground v.1.15,2013-05-08 13:58:00,
2013-05-08 08:03:00,43.9,41.7,29.93,NW,320,0.0,5.0,92,0.00,,,0.05,Wunderground v.1.15,2013-05-08 14:03:00,
2013-05-08 08:08:00,44.1,41.9,29.93,NW,320,1.0,5.0,92,0.00,,,0.05,Wunderground v.1.15,2013-05-08 14:08:00,
2013-05-08 08:13:00,44.1,41.9,29.93,NW,320,4.0,4.0,92,0.00,,,0.05,Wunderground v.1.15,2013-05-08 14:13:00,
2013-05-08 08:18:00,44.1,41.9,29.93,NW,320,1.0,4.0,92,0.00,,,0.05,Wunderground v.1.15,2013-05-08 14:18:00,
2013-05-08 08:23:00,44.1,41.9,29.94,NW,320,2.0,4.0,92,0.00,,,0.05,Wunderground v.1.15,2013-05-08 14:23:00,
2013-05-08 08:28:00,44.1,41.6,29.94,NW,320,0.0,4.0,91,0.00,,,0.05,Wunderground v.1.15,2013-05-08 14:28:00,
2013-05-08 08:33:00,44.2,42.0,29.94,NW,319,3.0,3.0,92,0.00,,,0.05,Wunderground v.1.15,2013-05-08 14:33:00,
2013-05-08 08:38:00,44.2,41.7,29.94,NW,319,0.0,3.0,91,0.00,,,0.05,Wunderground v.1.15,2013-05-08 14:38:00,
2013-05-08 08:43:00,44.3,41.8,29.94,NW,319,2.0,2.0,91,0.00,,,0.05,Wunderground v.1.15,2013-05-08 14:43:00,
2013-05-08 08:48:00,44.3,41.8,29.94,NW,319,1.0,4.0,91,0.00,,,0.05,Wunderground v.1.15,2013-05-08 14:48:00,
2013-05-08 08:53:00,44.3,41.8,29.94,NW,319,0.0,1.0,91,0.00,,,0.05,Wunderground v.1.15,2013-05-08 14:53:00,
2013-05-08 08:58:00,44.3,41.8,29.94,NW,308,2.0,5.0,91,0.00,,,0.05,Wunderground v.1.15,2013-05-08 14:58:00,
2013-05-08 09:03:00,44.3,41.8,29.94,NW,308,0.0,2.0,91,0.00,,,0.05,Wunderground v.1.15,2013-05-08 15:03:00,
2013-05-08 09:08:00,44.5,42.0,29.95,NW,307,0.0,5.0,91,0.00,,,0.05,Wunderground v.1.15,2013-05-08 15:08:00,
2013-05-08 09:13:00,44.6,42.1,29.95,NW,307,1.0,2.0,91,0.00,,,0.05,Wunderground v.1.15,2013-05-08 15:13:00,
2013-05-08 09:18:00,44.8,42.3,29.95,NW,307,0.0,3.0,91,0.00,,,0.05,Wunderground v.1.15,2013-05-08 15:18:00,
2013-05-08 09:23:00,44.9,42.4,29.96,NW,307,0.0,0.0,91,0.00,,,0.05,Wunderground v.1.15,2013-05-08 15:23:00,
2013-05-08 09:28:00,45.1,42.6,29.96,NW,307,0.0,0.0,91,0.00,,,0.05,Wunderground v.1.15,2013-05-08 15:28:00,
2013-05-08 09:33:00,45.1,42.6,29.96,NW,307,0.0,1.0,91,0.00,,,0.05,Wunderground v.1.15,2013-05-08 15:33:00,
2013-05-08 09:38:00,44.9,42.4,29.97,NW,307,0.0,1.0,91,0.00,,,0.05,Wunderground v.1.15,2013-05-08 15:38:00,
2013-05-08 09:43:00,44.9,42.4,29.97,NW,307,0.0,0.0,91,0.00,,,0.05,Wunderground v.1.15,2013-05-08 15:43:00,
2013-05-08 09:48:00,45.1,42.6,29.97,NW,307,0.0,0.0,91,0.00,,,0.05,Wunderground v.1.15,2013-05-08 15:48:00,
2013-05-08 09:53:00,45.1,42.6,29.97,NW,309,2.0,3.0,91,0.22,,,0.07,Wunderground v.1.15,2013-05-08 15:53:00,
2013-05-08 09:58:00,45.1,42.6,29.97,NW,310,1.0,3.0,91,0.10,,,0.07,Wunderground v.1.15,2013-05-08 15:58:00,
2013-05-08 10:03:00,45.2,42.7,29.97,NW,310,0.0,1.0,91,0.10,,,0.08,Wunderground v.1.15,2013-05-08 16:03:00,
2013-05-08 10:08:00,45.2,42.7,29.98,NW,310,0.0,1.0,91,0.12,,,0.09,Wunderground v.1.15,2013-05-08 16:08:00,
2013-05-08 10:13:00,45.1,42.6,29.98,NW,310,0.0,0.0,91,0.23,,,0.11,Wunderground v.1.15,2013-05-08 16:13:00,
2013-05-08 10:18:00,44.9,42.4,29.98,NW,310,0.0,0.0,91,0.24,,,0.12,Wunderground v.1.15,2013-05-08 16:18:00,
2013-05-08 10:23:00,44.9,42.4,29.99,NW,310,0.0,0.0,91,0.19,,,0.14,Wunderground v.1.15,2013-05-08 16:23:00,
2013-05-08 10:28:00,45.2,42.7,29.99,NW,310,0.0,0.0,91,0.14,,,0.15,Wunderground v.1.15,2013-05-08 16:28:00,
2013-05-08 10:33:00,45.4,42.9,29.99,NW,310,0.0,0.0,91,0.10,,,0.16,Wunderground v.1.15,2013-05-08 16:33:00,
2013-05-08 10:38:00,45.5,43.0,30.00,NW,310,0.0,0.0,91,0.09,,,0.16,Wunderground v.1.15,2013-05-08 16:38:00,
2013-05-08 10:43:00,45.5,43.0,30.00,NW,310,0.0,0.0,91,0.05,,,0.16,Wunderground v.1.15,2013-05-08 16:43:00,
2013-05-08 10:49:00,45.8,43.3,30.00,NW,310,0.0,0.0,91,0.05,,,0.17,Wunderground v.1.15,2013-05-08 16:49:00,
2013-05-08 10:54:00,46.1,43.6,29.99,NW,310,0.0,0.0,91,0.05,,,0.17,Wunderground v.1.15,2013-05-08 16:54:00,
2013-05-08 10:59:00,46.1,43.6,29.99,NW,310,1.0,2.0,91,0.04,,,0.17,Wunderground v.1.15,2013-05-08 16:59:00,
2013-05-08 11:04:00,46.2,43.7,29.99,NW,310,1.0,3.0,91,0.00,,,0.17,Wunderground v.1.15,2013-05-08 17:04:00,
2013-05-08 11:09:00,46.2,43.7,29.99,NW,310,1.0,4.0,91,0.00,,,0.17,Wunderground v.1.15,2013-05-08 17:09:00,
2013-05-08 11:14:00,46.4,43.9,29.99,NW,310,2.0,2.0,91,0.00,,,0.18,Wunderground v.1.15,2013-05-08 17:14:00,
2013-05-08 11:19:00,46.5,44.0,29.99,NW,310,1.0,2.0,91,0.00,,,0.18,Wunderground v.1.15,2013-05-08 17:19:00,
2013-05-08 11:24:00,46.4,43.6,29.97,NW,310,2.0,3.0,90,0.00,,,0.18,Wunderground v.1.15,2013-05-08 17:24:00,
2013-05-08 11:29:00,46.5,44.0,29.97,NW,310,2.0,3.0,91,0.00,,,0.18,Wunderground v.1.15,2013-05-08 17:29:00,
2013-05-08 11:34:00,46.7,43.9,29.97,NW,310,0.0,1.0,90,0.00,,,0.18,Wunderground v.1.15,2013-05-08 17:34:00,
2013-05-08 11:39:00,47.0,44.2,29.97,NW,310,1.0,3.0,90,0.00,,,0.18,Wunderground v.1.15,2013-05-08 17:39:00,
2013-05-08 11:44:00,47.0,44.2,29.97,NW,310,0.0,3.0,90,0.00,,,0.18,Wunderground v.1.15,2013-05-08 17:44:00,
2013-05-08 11:49:00,47.3,44.5,29.97,NW,310,0.0,3.0,90,0.00,,,0.18,Wunderground v.1.15,2013-05-08 17:49:00,
2013-05-08 11:54:00,47.6,44.5,29.96,NW,310,1.0,3.0,89,0.00,,,0.18,Wunderground v.1.15,2013-05-08 17:54:00,
2013-05-08 11:59:00,48.3,45.5,29.96,NW,310,3.0,3.0,90,0.00,,,0.18,Wunderground v.1.15,2013-05-08 17:59:00,
2013-05-08 12:04:00,48.5,45.4,29.96,NW,311,0.0,5.0,89,0.00,,,0.18,Wunderground v.1.15,2013-05-08 18:04:00,
2013-05-08 12:09:00,48.5,45.1,29.95,NW,312,3.0,5.0,88,0.00,,,0.18,Wunderground v.1.15,2013-05-08 18:09:00,
2013-05-08 12:14:00,48.5,44.5,29.95,NW,313,0.0,5.0,86,0.00,,,0.18,Wunderground v.1.15,2013-05-08 18:14:00,
2013-05-08 12:19:00,48.6,44.3,29.95,NW,320,3.0,5.0,85,0.00,,,0.18,Wunderground v.1.15,2013-05-08 18:19:00,
2013-05-08 12:24:00,48.8,44.2,29.97,NW,320,0.0,3.0,84,0.00,,,0.18,Wunderground v.1.15,2013-05-08 18:24:00,
2013-05-08 12:29:00,48.9,43.6,29.97,NW,321,1.0,4.0,82,0.00,,,0.18,Wunderground v.1.15,2013-05-08 18:29:00,
2013-05-08 12:34:00,49.1,43.2,29.97,NW,321,1.0,4.0,80,0.00,,,0.18,Wunderground v.1.15,2013-05-08 18:34:00,
2013-05-08 12:39:00,49.6,43.7,29.97,NNW,333,4.0,4.0,80,0.00,,,0.18,Wunderground v.1.15,2013-05-08 18:39:00,
2013-05-08 12:44:00,49.8,43.2,29.97,NE,44,2.0,6.0,78,0.00,,,0.18,Wunderground v.1.15,2013-05-08 18:44:00,
2013-05-08 12:49:00,49.8,42.5,29.97,NE,38,2.0,6.0,76,0.00,,,0.18,Wunderground v.1.15,2013-05-08 18:49:00,
2013-05-08 12:54:00,50.1,42.5,29.96,NE,38,0.0,4.0,75,0.00,,,0.18,Wunderground v.1.15,2013-05-08 18:54:00,
2013-05-08 12:59:00,50.2,42.6,29.96,North,360,0.0,6.0,75,0.00,,,0.18,Wunderground v.1.15,2013-05-08 18:59:00,
2013-05-08 13:04:00,50.4,42.4,29.96,North,360,0.0,1.0,74,0.00,,,0.18,Wunderground v.1.15,2013-05-08 19:04:00,
2013-05-08 13:09:00,50.5,42.5,29.95,NE,49,2.0,6.0,74,0.00,,,0.18,Wunderground v.1.15,2013-05-08 19:09:00,
2013-05-08 13:14:00,50.7,42.4,29.95,NE,43,0.0,5.0,73,0.00,,,0.18,Wunderground v.1.15,2013-05-08 19:14:00,
2013-05-08 13:19:00,51.0,42.3,29.95,NE,34,0.0,5.0,72,0.00,,,0.18,Wunderground v.1.15,2013-05-08 19:19:00,
2013-05-08 13:24:00,51.3,43.3,29.96,NNE,16,1.0,3.0,74,0.00,,,0.18,Wunderground v.1.15,2013-05-08 19:24:00,
2013-05-08 13:29:00,51.7,43.3,29.96,NNE,18,0.0,3.0,73,0.00,,,0.18,Wunderground v.1.15,2013-05-08 19:29:00,
2013-05-08 13:34:00,52.3,43.2,29.96,NE,55,0.0,0.0,71,0.00,,,0.18,Wunderground v.1.15,2013-05-08 19:34:00,
2013-05-08 13:39:00,52.8,42.9,29.95,NE,55,0.0,0.0,69,0.00,,,0.18,Wunderground v.1.15,2013-05-08 19:39:00,
2013-05-08 13:44:00,53.2,43.3,29.95,NNE,22,0.0,0.0,69,0.00,,,0.18,Wunderground v.1.15,2013-05-08 19:44:00,
2013-05-08 13:49:00,53.2,43.7,29.95,NNE,21,0.0,0.0,70,0.00,,,0.18,Wunderground v.1.15,2013-05-08 19:49:00,
2013-05-08 13:54:00,53.2,43.3,29.95,NNE,20,0.0,0.0,69,0.00,,,0.18,Wunderground v.1.15,2013-05-08 19:54:00,
2013-05-08 13:59:00,53.2,43.7,29.95,NNE,19,0.0,0.0,70,0.00,,,0.18,Wunderground v.1.15,2013-05-08 19:59:00,
2013-05-08 14:04:00,53.9,44.0,29.95,East,79,3.0,5.0,69,0.00,,,0.18,Wunderground v.1.15,2013-05-08 20:04:00,
2013-05-08 14:09:00,54.1,42.6,29.94,ENE,78,0.0,5.0,65,0.00,,,0.18,Wunderground v.1.15,2013-05-08 20:09:00,
2013-05-08 14:14:00,53.8,43.1,29.94,SSE,152,2.0,5.0,67,0.00,,,0.18,Wunderground v.1.15,2013-05-08 20:14:00,
2013-05-08 14:19:00,53.8,43.1,29.93,ESE,114,1.0,5.0,67,0.00,,,0.18,Wunderground v.1.15,2013-05-08 20:19:00,
2013-05-08 14:24:00,53.9,43.2,29.93,ENE,76,1.0,5.0,67,0.00,,,0.18,Wunderground v.1.15,2013-05-08 20:24:00,
2013-05-08 14:29:00,53.9,42.4,29.93,ENE,74,0.0,5.0,65,0.00,,,0.18,Wunderground v.1.15,2013-05-08 20:29:00,
2013-05-08 14:34:00,53.9,42.8,29.93,ENE,63,0.0,2.0,66,0.00,,,0.18,Wunderground v.1.15,2013-05-08 20:34:00,
2013-05-08 14:39:00,53.9,42.4,29.93,ENE,63,1.0,2.0,65,0.00,,,0.18,Wunderground v.1.15,2013-05-08 20:39:00,
2013-05-08 14:44:00,54.4,42.9,29.93,East,80,0.0,3.0,65,0.00,,,0.18,Wunderground v.1.15,2013-05-08 20:44:00,
2013-05-08 14:49:00,54.8,42.9,29.92,East,80,0.0,3.0,64,0.00,,,0.18,Wunderground v.1.15,2013-05-08 20:49:00,
2013-05-08 14:54:00,55.4,43.4,29.92,NE,54,5.0,5.0,64,0.00,,,0.18,Wunderground v.1.15,2013-05-08 20:54:00,
2013-05-08 14:59:00,55.3,42.5,29.92,East,94,1.0,5.0,62,0.00,,,0.18,Wunderground v.1.15,2013-05-08 20:59:00,
2013-05-08 15:05:00,55.1,42.3,29.92,North,5,4.0,6.0,62,0.00,,,0.18,Wunderground v.1.15,2013-05-08 21:05:00,
2013-05-08 15:10:00,55.0,42.6,29.92,North,351,0.0,6.0,63,0.00,,,0.18,Wunderground v.1.15,2013-05-08 21:10:00,
2013-05-08 15:15:00,55.1,42.7,29.92,North,5,3.0,6.0,63,0.00,,,0.18,Wunderground v.1.15,2013-05-08 21:15:00,
2013-05-08 15:20:00,55.3,42.5,29.92,North,5,1.0,3.0,62,0.00,,,0.18,Wunderground v.1.15,2013-05-08 21:20:00,
2013-05-08 15:25:00,55.3,42.1,29.92,North,5,1.0,3.0,61,0.00,,,0.18,Wunderground v.1.15,2013-05-08 21:25:00,
2013-05-08 15:30:00,55.6,42.4,29.92,North,5,2.0,2.0,61,0.00,,,0.18,Wunderground v.1.15,2013-05-08 21:30:00,
2013-05-08 15:35:00,55.4,42.2,29.91,North,5,0.0,4.0,61,0.00,,,0.18,Wunderground v.1.15,2013-05-08 21:35:00,
2013-05-08 15:40:00,55.6,42.8,29.91,North,5,0.0,1.0,62,0.00,,,0.18,Wunderground v.1.15,2013-05-08 21:40:00,
2013-05-08 15:45:00,55.6,41.9,29.91,North,5,0.0,2.0,60,0.00,,,0.18,Wunderground v.1.15,2013-05-08 21:45:00,
2013-05-08 15:50:00,55.7,42.5,29.90,North,5,0.0,0.0,61,0.00,,,0.18,Wunderground v.1.15,2013-05-08 21:50:00,
2013-05-08 15:55:00,55.6,42.4,29.90,NNE,30,2.0,3.0,61,0.00,,,0.18,Wunderground v.1.15,2013-05-08 21:55:00,
2013-05-08 16:00:00,55.4,41.7,29.90,NNE,30,0.0,1.0,60,0.00,,,0.18,Wunderground v.1.15,2013-05-08 22:00:00,
2013-05-08 16:05:00,55.4,42.2,29.91,NNE,30,2.0,2.0,61,0.00,,,0.18,Wunderground v.1.15,2013-05-08 22:05:00,
2013-05-08 16:10:00,55.3,42.5,29.91,NNE,19,1.0,2.0,62,0.00,,,0.18,Wunderground v.1.15,2013-05-08 22:10:00,
2013-05-08 16:15:00,55.1,41.5,29.91,NNE,19,0.0,2.0,60,0.00,,,0.18,Wunderground v.1.15,2013-05-08 22:15:00,
2013-05-08 16:20:00,55.0,40.9,29.90,NNE,19,0.0,0.0,59,0.00,,,0.18,Wunderground v.1.15,2013-05-08 22:20:00,
2013-05-08 16:25:00,55.0,40.9,29.90,NNE,19,0.0,1.0,59,0.00,,,0.18,Wunderground v.1.15,2013-05-08 22:25:00,
2013-05-08 16:30:00,55.1,41.5,29.90,NNE,19,2.0,2.0,60,0.00,,,0.18,Wunderground v.1.15,2013-05-08 22:30:00,
2013-05-08 16:35:00,55.0,41.4,29.90,NNE,19,0.0,4.0,60,0.00,,,0.18,Wunderground v.1.15,2013-05-08 22:35:00,
2013-05-08 16:40:00,55.1,41.9,29.90,NNE,19,0.0,0.0,61,0.00,,,0.18,Wunderground v.1.15,2013-05-08 22:40:00,
2013-05-08 16:45:00,55.4,41.7,29.90,North,350,0.0,1.0,60,0.00,,,0.18,Wunderground v.1.15,2013-05-08 22:45:00,
2013-05-08 16:50:00,55.7,42.0,29.90,North,349,0.0,1.0,60,0.00,,,0.18,Wunderground v.1.15,2013-05-08 22:50:00,
2013-05-08 16:55:00,55.9,42.6,29.90,NNW,348,0.0,2.0,61,0.00,,,0.18,Wunderground v.1.15,2013-05-08 22:55:00,
2013-05-08 17:00:00,55.9,41.8,29.90,NNW,348,1.0,1.0,59,0.00,,,0.18,Wunderground v.1.15,2013-05-08 23:00:00,
2013-05-08 17:05:00,55.7,41.6,29.89,NNW,348,0.0,1.0,59,0.00,,,0.18,Wunderground v.1.15,2013-05-08 23:05:00,
2013-05-08 17:10:00,55.9,42.2,29.89,NNW,348,0.0,0.0,60,0.00,,,0.18,Wunderground v.1.15,2013-05-08 23:10:00,
2013-05-08 17:15:00,56.0,41.9,29.89,NNW,348,0.0,1.0,59,0.00,,,0.18,Wunderground v.1.15,2013-05-08 23:15:00,
2013-05-08 17:20:00,55.9,42.2,29.90,South,175,1.0,4.0,60,0.00,,,0.18,Wunderground v.1.15,2013-05-08 23:20:00,
2013-05-08 17:25:00,55.3,40.8,29.90,SSW,205,0.0,8.0,58,0.00,,,0.18,Wunderground v.1.15,2013-05-08 23:25:00,
2013-05-08 17:30:00,54.7,40.2,29.90,SW,222,0.0,2.0,58,0.00,,,0.18,Wunderground v.1.15,2013-05-08 23:30:00,
2013-05-08 17:35:00,54.4,40.8,29.90,SSW,203,0.0,2.0,60,0.00,,,0.18,Wunderground v.1.15,2013-05-08 23:35:00,
2013-05-08 17:40:00,54.4,40.4,29.90,South,178,0.0,3.0,59,0.00,,,0.18,Wunderground v.1.15,2013-05-08 23:40:00,
2013-05-08 17:45:00,54.2,40.6,29.90,SE,144,3.0,7.0,60,0.00,,,0.18,Wunderground v.1.15,2013-05-08 23:45:00,
2013-05-08 17:50:00,54.2,41.0,29.91,SSE,161,1.0,1.0,61,0.00,,,0.18,Wunderground v.1.15,2013-05-08 23:50:00,
2013-05-08 17:55:00,54.2,41.0,29.91,SSE,162,1.0,1.0,61,0.00,,,0.18,Wunderground v.1.15,2013-05-08 23:55:00,
2013-05-08 18:00:00,54.4,41.6,29.91,SSW,211,0.0,2.0,62,0.00,,,0.18,Wunderground v.1.15,2013-05-09 00:00:00,
2013-05-08 18:05:00,54.5,41.7,29.91,WNW,301,2.0,4.0,62,0.00,,,0.18,Wunderground v.1.15,2013-05-09 00:05:00,
2013-05-08 18:10:00,54.5,40.9,29.91,NW,321,1.0,2.0,60,0.00,,,0.18,Wunderground v.1.15,2013-05-09 00:10:00,
2013-05-08 18:15:00,54.5,40.9,29.91,NE,45,4.0,5.0,60,0.00,,,0.18,Wunderground v.1.15,2013-05-09 00:15:00,
2013-05-08 18:20:00,54.7,41.1,29.92,NE,35,0.0,1.0,60,0.00,,,0.18,Wunderground v.1.15,2013-05-09 00:20:00,
2013-05-08 18:25:00,54.7,40.6,29.92,NNE,30,3.0,5.0,59,0.00,,,0.18,Wunderground v.1.15,2013-05-09 00:25:00,
2013-05-08 18:30:00,54.7,41.1,29.92,NE,34,2.0,4.0,60,0.00,,,0.18,Wunderground v.1.15,2013-05-09 00:30:00,
2013-05-08 18:35:00,54.5,40.5,29.92,NNE,33,3.0,6.0,59,0.00,,,0.18,Wunderground v.1.15,2013-05-09 00:35:00,
2013-05-08 18:40:00,54.7,40.2,29.92,NNE,33,0.0,2.0,58,0.00,,,0.18,Wunderground v.1.15,2013-05-09 00:40:00,
2013-05-08 18:45:00,54.7,40.2,29.92,NNW,346,0.0,2.0,58,0.00,,,0.18,Wunderground v.1.15,2013-05-09 00:45:00,
2013-05-08 18:50:00,54.8,39.8,29.92,NNW,347,1.0,1.0,57,0.00,,,0.18,Wunderground v.1.15,2013-05-09 00:50:00,
2013-05-08 18:55:00,54.8,40.3,29.92,North,355,1.0,3.0,58,0.00,,,0.18,Wunderground v.1.15,2013-05-09 00:55:00,
2013-05-08 19:00:00,54.8,41.2,29.92,North,9,0.0,1.0,60,0.00,,,0.18,Wunderground v.1.15,2013-05-09 01:00:00,
2013-05-08 19:05:00,54.8,40.3,29.92,North,10,0.0,3.0,58,0.00,,,0.18,Wunderground v.1.15,2013-05-09 01:05:00,
2013-05-08 19:10:00,55.0,41.4,29.92,North,10,2.0,3.0,60,0.00,,,0.18,Wunderground v.1.15,2013-05-09 01:10:00,
2013-05-08 19:15:00,55.0,41.4,29.92,NNE,12,2.0,3.0,60,0.00,,,0.18,Wunderground v.1.15,2013-05-09 01:15:00,
2013-05-08 19:20:00,54.8,40.7,29.91,NE,49,1.0,3.0,59,0.00,,,0.18,Wunderground v.1.15,2013-05-09 01:20:00,
2013-05-08 19:25:00,54.7,41.1,29.91,NE,54,1.0,3.0,60,0.00,,,0.18,Wunderground v.1.15,2013-05-09 01:25:00,
2013-05-08 19:30:00,54.5,40.9,29.91,NE,55,1.0,1.0,60,0.00,,,0.18,Wunderground v.1.15,2013-05-09 01:30:00,
2013-05-08 19:35:00,54.4,41.2,29.91,NE,55,0.0,3.0,61,0.00,,,0.18,Wunderground v.1.15,2013-05-09 01:35:00,
2013-05-08 19:40:00,54.4,40.8,29.91,NE,56,1.0,2.0,60,0.00,,,0.18,Wunderground v.1.15,2013-05-09 01:40:00,
2013-05-08 19:45:00,54.4,41.2,29.91,NE,56,0.0,2.0,61,0.00,,,0.18,Wunderground v.1.15,2013-05-09 01:45:00,
2013-05-08 19:50:00,54.1,40.5,29.91,NE,56,0.0,2.0,60,0.00,,,0.18,Wunderground v.1.15,2013-05-09 01:50:00,
2013-05-08 19:55:00,53.9,40.3,29.91,ENE,57,0.0,3.0,60,0.00,,,0.18,Wunderground v.1.15,2013-05-09 01:55:00,
2013-05-08 20:00:00,53.9,40.3,29.91,ENE,57,0.0,0.0,60,0.00,,,0.18,Wunderground v.1.15,2013-05-09 02:00:00,
2013-05-08 20:06:00,53.9,40.8,29.92,ENE,57,0.0,3.0,61,0.00,,,0.18,Wunderground v.1.15,2013-05-09 02:06:00,
2013-05-08 20:11:00,53.8,40.7,29.92,ENE,57,0.0,0.0,61,0.00,,,0.18,Wunderground v.1.15,2013-05-09 02:11:00,
2013-05-08 20:16:00,53.8,41.1,29.92,ENE,57,0.0,2.0,62,0.00,,,0.18,Wunderground v.1.15,2013-05-09 02:16:00,
2013-05-08 20:21:00,53.6,41.3,29.92,ENE,57,0.0,0.0,63,0.00,,,0.18,Wunderground v.1.15,2013-05-09 02:21:00,
2013-05-08 20:26:00,53.3,41.8,29.92,ENE,57,0.0,0.0,65,0.00,,,0.18,Wunderground v.1.15,2013-05-09 02:26:00,
2013-05-08 20:31:00,52.8,42.1,29.92,ENE,57,0.0,0.0,67,0.00,,,0.18,Wunderground v.1.15,2013-05-09 02:31:00,
2013-05-08 20:36:00,52.3,42.4,29.93,ENE,57,0.0,0.0,69,0.00,,,0.18,Wunderground v.1.15,2013-05-09 02:36:00,
2013-05-08 20:41:00,51.9,42.8,29.93,ENE,57,0.0,0.0,71,0.00,,,0.18,Wunderground v.1.15,2013-05-09 02:41:00,
2013-05-08 20:46:00,51.6,43.2,29.93,ENE,57,0.0,0.0,73,0.00,,,0.18,Wunderground v.1.15,2013-05-09 02:46:00,
2013-05-08 20:51:00,51.4,43.0,29.95,ENE,57,0.0,0.0,73,0.00,,,0.18,Wunderground v.1.15,2013-05-09 02:51:00,
2013-05-08 20:56:00,51.1,43.1,29.95,ENE,57,0.0,0.0,74,0.00,,,0.18,Wunderground v.1.15,2013-05-09 02:56:00,
2013-05-08 21:01:00,51.0,43.4,29.95,ENE,57,0.0,0.0,75,0.00,,,0.18,Wunderground v.1.15,2013-05-09 03:01:00,
2013-05-08 21:06:00,50.8,43.5,29.95,ENE,57,0.0,0.0,76,0.00,,,0.18,Wunderground v.1.15,2013-05-09 03:06:00,
2013-05-08 21:11:00,50.7,43.8,29.95,ENE,57,0.0,0.0,77,0.00,,,0.18,Wunderground v.1.15,2013-05-09 03:11:00,
2013-05-08 21:16:00,50.5,43.9,29.95,ENE,57,0.0,0.0,78,0.00,,,0.18,Wunderground v.1.15,2013-05-09 03:16:00,
2013-05-08 21:21:00,50.4,43.8,29.95,ENE,57,0.0,0.0,78,0.00,,,0.18,Wunderground v.1.15,2013-05-09 03:21:00,
2013-05-08 21:26:00,50.1,43.8,29.95,ENE,57,0.0,0.0,79,0.00,,,0.18,Wunderground v.1.15,2013-05-09 03:26:00,
2013-05-08 21:31:00,49.9,43.6,29.95,ENE,57,0.0,0.0,79,0.00,,,0.18,Wunderground v.1.15,2013-05-09 03:31:00,
2013-05-08 21:36:00,49.8,43.5,29.95,ENE,57,0.0,0.0,79,0.00,,,0.18,Wunderground v.1.15,2013-05-09 03:36:00,
2013-05-08 21:41:00,49.6,43.4,29.95,ENE,57,0.0,0.0,79,0.00,,,0.18,Wunderground v.1.15,2013-05-09 03:41:00,
2013-05-08 21:46:00,49.8,43.9,29.95,ENE,57,0.0,0.0,80,0.00,,,0.18,Wunderground v.1.15,2013-05-09 03:46:00,
2013-05-08 21:51:00,49.8,43.9,29.95,ENE,57,0.0,0.0,80,0.00,,,0.18,Wunderground v.1.15,2013-05-09 03:51:00,
2013-05-08 21:56:00,50.4,43.8,29.95,ENE,57,1.0,3.0,78,0.00,,,0.18,Wunderground v.1.15,2013-05-09 03:56:00,
2013-05-08 22:01:00,51.1,43.1,29.95,ENE,57,2.0,3.0,74,0.00,,,0.18,Wunderground v.1.15,2013-05-09 04:01:00,
2013-05-08 22:06:00,51.7,42.6,29.94,NE,56,1.0,5.0,71,0.00,,,0.18,Wunderground v.1.15,2013-05-09 04:06:00,
2013-05-08 22:11:00,51.9,43.2,29.94,NE,55,0.0,2.0,72,0.00,,,0.18,Wunderground v.1.15,2013-05-09 04:11:00,
2013-05-08 22:17:00,51.9,43.5,29.94,NE,45,1.0,5.0,73,0.00,,,0.18,Wunderground v.1.15,2013-05-09 04:17:00,
2013-05-08 22:22:00,51.7,43.3,29.93,NNE,33,4.0,5.0,73,0.00,,,0.18,Wunderground v.1.15,2013-05-09 04:22:00,
2013-05-08 22:27:00,51.4,43.0,29.93,NE,39,1.0,5.0,73,0.00,,,0.18,Wunderground v.1.15,2013-05-09 04:27:00,
2013-05-08 22:32:00,51.3,43.3,29.93,NE,39,0.0,2.0,74,0.00,,,0.18,Wunderground v.1.15,2013-05-09 04:32:00,
2013-05-08 22:37:00,51.3,43.3,29.95,NE,39,0.0,4.0,74,0.00,,,0.18,Wunderground v.1.15,2013-05-09 04:37:00,
2013-05-08 22:42:00,51.1,43.1,29.95,NE,39,0.0,1.0,74,0.00,,,0.18,Wunderground v.1.15,2013-05-09 04:42:00,
2013-05-08 22:47:00,51.0,43.4,29.95,NE,39,0.0,1.0,75,0.00,,,0.18,Wunderground v.1.15,2013-05-09 04:47:00,
2013-05-08 22:52:00,50.7,43.4,29.95,NE,39,0.0,0.0,76,0.00,,,0.18,Wunderground v.1.15,2013-05-09 04:52:00,
2013-05-08 22:57:00,50.5,43.2,29.95,NE,39,0.0,0.0,76,0.00,,,0.18,Wunderground v.1.15,2013-05-09 04:57:00,
2013-05-08 23:02:00,50.2,43.3,29.95,NE,39,0.0,0.0,77,0.00,,,0.18,Wunderground v.1.15,2013-05-09 05:02:00,
2013-05-08 23:07:00,50.1,43.5,29.95,NE,39,0.0,0.0,78,0.00,,,0.18,Wunderground v.1.15,2013-05-09 05:07:00,
2013-05-08 23:12:00,49.8,43.5,29.95,NE,39,0.0,0.0,79,0.00,,,0.18,Wunderground v.1.15,2013-05-09 05:12:00,
2013-05-08 23:17:00,49.5,43.6,29.95,NE,39,0.0,0.0,80,0.00,,,0.18,Wunderground v.1.15,2013-05-09 05:17:00,
2013-05-08 23:22:00,49.2,43.3,29.94,NE,39,0.0,0.0,80,0.00,,,0.18,Wunderground v.1.15,2013-05-09 05:22:00,
2013-05-08 23:27:00,49.1,43.5,29.94,NE,39,0.0,0.0,81,0.00,,,0.18,Wunderground v.1.15,2013-05-09 05:27:00,
2013-05-08 23:32:00,49.1,43.5,29.94,NE,39,0.0,0.0,81,0.00,,,0.18,Wunderground v.1.15,2013-05-09 05:32:00,
2013-05-08 23:37:00,48.8,43.5,29.94,NE,39,0.0,0.0,82,0.00,,,0.18,Wunderground v.1.15,2013-05-09 05:37:00,
2013-05-08 23:42:00,48.6,43.7,29.94,NE,39,0.0,0.0,83,0.00,,,0.18,Wunderground v.1.15,2013-05-09 05:42:00,
2013-05-08 23:47:00,48.6,44.0,29.94,NE,42,0.0,0.0,84,0.00,,,0.19,Wunderground v.1.15,2013-05-09 05:47:00,
2013-05-08 23:52:00,48.6,44.3,29.94,ENE,64,0.0,1.0,85,0.00,,,0.19,Wunderground v.1.15,2013-05-09 05:52:00,
2013-05-08 23:57:00,48.5,44.2,29.94,ENE,74,0.0,1.0,85,0.00,,,0.19,Wunderground v.1.15,2013-05-09 05:57:00,